TimeEDT,TemperatureF,Dew PointF,Humidity,Sea Level PressureIn,VisibilityMPH,Wind Direction,Wind SpeedMPH,Gust SpeedMPH,PrecipitationIn,Events,Conditions,WindDirDegrees,DateUTC
12:15 AM,55.4,51.8,88,29.90,10.0,WNW,8.1,-,N/A,,Clear,290,2013-03-17 04:15:00
12:35 AM,57.2,51.8,82,29.90,10.0,WNW,9.2,-,N/A,,Clear,290,2013-03-17 04:35:00
12:55 AM,57.2,51.8,82,29.90,10.0,WNW,8.1,-,N/A,,Clear,300,2013-03-17 04:55:00
1:15 AM,55.4,51.8,88,29.91,10.0,WNW,9.2,-,N/A,,Clear,300,2013-03-17 05:15:00
1:35 AM,55.4,51.8,88,29.90,10.0,WNW,6.9,-,N/A,,Scattered Clouds,300,2013-03-17 05:35:00
1:55 AM,53.6,51.8,94,29.91,10.0,West,5.8,-,N/A,,Clear,280,2013-03-17 05:55:00
2:15 AM,53.6,51.8,94,29.91,10.0,West,4.6,-,N/A,,Clear,280,2013-03-17 06:15:00
2:35 AM,51.8,50.0,94,29.91,10.0,NW,8.1,-,N/A,,Clear,310,2013-03-17 06:35:00
2:55 AM,51.8,50.0,94,29.92,10.0,WNW,4.6,-,N/A,,Clear,300,2013-03-17 06:55:00
3:15 AM,53.6,50.0,88,29.93,10.0,West,5.8,-,N/A,,Scattered Clouds,280,2013-03-17 07:15:00
3:35 AM,51.8,50.0,94,29.94,10.0,Calm,Calm,-,N/A,,Scattered Clouds,0,2013-03-17 07:35:00
3:55 AM,51.8,50.0,94,29.94,10.0,Calm,Calm,-,N/A,,Overcast,0,2013-03-17 07:55:00
4:15 AM,51.8,48.2,88,29.93,7.0,WNW,4.6,-,N/A,,Overcast,290,2013-03-17 08:15:00
4:35 AM,51.8,48.2,88,29.93,7.0,West,3.5,-,N/A,,Overcast,280,2013-03-17 08:35:00
4:55 AM,50.0,48.2,94,29.94,7.0,WNW,3.5,-,N/A,,Scattered Clouds,300,2013-03-17 08:55:00
5:15 AM,48.2,48.2,100,29.94,7.0,Calm,Calm,-,N/A,,Mostly Cloudy,0,2013-03-17 09:15:00
5:35 AM,48.2,48.2,100,29.94,7.0,NW,4.6,-,N/A,,Mostly Cloudy,310,2013-03-17 09:35:00
5:55 AM,48.2,48.2,100,29.95,5.0,Calm,Calm,-,N/A,,Overcast,0,2013-03-17 09:55:00
6:15 AM,48.2,48.2,100,29.96,5.0,Calm,Calm,-,N/A,,Overcast,0,2013-03-17 10:15:00
6:35 AM,48.2,48.2,100,29.97,7.0,Calm,Calm,-,N/A,,Overcast,0,2013-03-17 10:35:00
6:55 AM,48.2,48.2,100,29.98,7.0,Calm,Calm,-,N/A,,Overcast,0,2013-03-17 10:55:00
7:15 AM,48.2,48.2,100,29.98,5.0,Calm,Calm,-,N/A,,Overcast,0,2013-03-17 11:15:00
7:35 AM,48.2,48.2,100,29.99,5.0,Calm,Calm,-,N/A,,Overcast,0,2013-03-17 11:35:00
7:55 AM,48.2,48.2,100,29.98,5.0,Calm,Calm,-,N/A,Rain,Light Rain,0,2013-03-17 11:55:00
8:15 AM,48.2,48.2,100,29.99,4.0,Calm,Calm,-,N/A,,Overcast,0,2013-03-17 12:15:00
8:35 AM,48.2,48.2,100,30.02,2.5,Calm,Calm,-,N/A,Rain,Light Rain,0,2013-03-17 12:35:00
8:55 AM,48.2,48.2,100,30.03,3.0,Calm,Calm,-,0.01,Rain,Light Rain,0,2013-03-17 12:55:00
9:15 AM,48.2,48.2,100,30.03,3.0,Calm,Calm,-,N/A,,Drizzle,0,2013-03-17 13:15:00
9:35 AM,50.0,50.0,100,30.03,5.0,Calm,Calm,-,N/A,,Overcast,0,2013-03-17 13:35:00
9:55 AM,48.2,48.2,100,30.04,3.0,Calm,Calm,-,N/A,,Overcast,0,2013-03-17 13:55:00
10:15 AM,48.2,48.2,100,30.03,0.5,ESE,5.8,-,N/A,Fog,Fog,120,2013-03-17 14:15:00
10:35 AM,46.4,46.4,100,30.05,0.5,ESE,6.9,-,N/A,Fog,Fog,120,2013-03-17 14:35:00
10:55 AM,44.6,44.6,100,30.04,1.2,ESE,8.1,-,N/A,,Drizzle,120,2013-03-17 14:55:00
11:15 AM,44.6,44.6,100,30.06,1.0,ESE,6.9,-,N/A,,Light Drizzle,110,2013-03-17 15:15:00
11:35 AM,44.6,44.6,100,30.06,1.0,ESE,8.1,-,N/A,,Drizzle,110,2013-03-17 15:35:00
11:55 AM,44.6,44.6,100,30.07,0.8,ESE,6.9,-,N/A,,Light Drizzle,120,2013-03-17 15:55:00
12:15 PM,44.6,44.6,100,30.07,0.5,ESE,9.2,-,0.01,,Drizzle,120,2013-03-17 16:15:00
12:35 PM,44.6,44.6,100,30.07,1.0,ESE,8.1,-,0.01,,Drizzle,110,2013-03-17 16:35:00
12:55 PM,42.8,42.8,100,30.07,1.8,East,9.2,-,0.01,,Light Drizzle,100,2013-03-17 16:55:00
1:15 PM,42.8,42.8,100,30.06,2.0,ESE,8.1,-,N/A,,Light Drizzle,120,2013-03-17 17:15:00
1:35 PM,42.8,42.8,100,30.06,2.5,ESE,11.5,-,N/A,,Overcast,120,2013-03-17 17:35:00
1:55 PM,42.8,42.8,100,30.05,1.8,ESE,8.1,-,N/A,,Overcast,120,2013-03-17 17:55:00
2:15 PM,42.8,42.8,100,30.05,1.8,ESE,5.8,-,N/A,,Overcast,120,2013-03-17 18:15:00
2:35 PM,42.8,42.8,100,30.05,2.0,ESE,6.9,-,N/A,,Overcast,110,2013-03-17 18:35:00
2:55 PM,42.8,42.8,100,30.04,2.0,ESE,6.9,-,N/A,,Overcast,120,2013-03-17 18:55:00
3:15 PM,42.8,42.8,100,30.04,0.8,ESE,5.8,-,N/A,,Overcast,110,2013-03-17 19:15:00
3:35 PM,42.8,42.8,100,30.04,1.0,East,8.1,-,N/A,,Overcast,90,2013-03-17 19:35:00
3:55 PM,41.0,41.0,100,30.05,1.8,East,8.1,-,N/A,,Overcast,90,2013-03-17 19:55:00
4:15 PM,41.0,41.0,100,30.04,1.0,East,9.2,-,N/A,,Overcast,100,2013-03-17 20:15:00
4:35 PM,41.0,41.0,100,30.05,0.8,ESE,9.2,-,N/A,,Overcast,110,2013-03-17 20:35:00
4:55 PM,39.2,39.2,100,30.05,0.5,East,9.2,-,N/A,Fog,Fog,100,2013-03-17 20:55:00
5:15 PM,39.2,39.2,100,30.05,0.2,East,9.2,-,N/A,Fog,Fog,90,2013-03-17 21:15:00
5:35 PM,39.2,39.2,100,30.05,0.2,East,9.2,-,N/A,,Overcast,80,2013-03-17 21:35:00
5:55 PM,39.2,39.2,100,30.07,0.2,East,9.2,-,N/A,,Overcast,90,2013-03-17 21:55:00
6:15 PM,37.4,37.4,100,30.07,0.2,East,9.2,-,N/A,Rain,Light Rain,90,2013-03-17 22:15:00
6:35 PM,37.4,37.4,100,30.07,1.0,East,9.2,-,N/A,,Light Drizzle,80,2013-03-17 22:35:00
6:55 PM,37.4,37.4,100,30.07,2.0,East,8.1,-,N/A,,Light Drizzle,90,2013-03-17 22:55:00
7:15 PM,37.4,37.4,100,30.07,2.5,ENE,6.9,-,0.01,Rain,Rain,60,2013-03-17 23:15:00
7:35 PM,37.4,37.4,100,30.08,5.0,ENE,10.4,-,0.02,Rain,Light Rain,60,2013-03-17 23:35:00
7:55 PM,37.4,37.4,100,30.09,3.0,ENE,6.9,-,0.07,Rain,Rain,60,2013-03-17 23:55:00
8:15 PM,37.4,37.4,100,30.09,2.5,East,9.2,-,0.10,Snow,Light Snow,90,2013-03-18 00:15:00
8:35 PM,37.4,37.4,100,30.10,4.0,East,4.6,-,0.17,Snow,Snow,80,2013-03-18 00:35:00
8:55 PM,37.4,37.4,100,30.11,4.0,ENE,5.8,-,0.20,Rain,Rain,70,2013-03-18 00:55:00
9:15 PM,37.4,37.4,100,30.12,4.0,East,9.2,-,0.05,Rain,Light Rain,80,2013-03-18 01:15:00
9:35 PM,35.6,35.6,100,30.13,7.0,East,5.8,-,0.09,Rain,Rain,80,2013-03-18 01:35:00
9:55 PM,37.4,37.4,100,30.13,7.0,East,9.2,-,0.14,Rain,Light Rain,100,2013-03-18 01:55:00
10:15 PM,35.6,35.6,100,30.13,10.0,East,9.2,-,0.01,Rain,Rain,100,2013-03-18 02:15:00
10:35 PM,35.6,35.6,100,30.14,7.0,East,6.9,-,0.02,Rain,Rain,90,2013-03-18 02:35:00
10:55 PM,35.6,35.6,100,30.14,10.0,East,8.1,-,0.03,,Light Drizzle,100,2013-03-18 02:55:00
11:15 PM,35.6,35.6,100,30.14,10.0,East,5.8,9.2,N/A,Rain,Light Rain,90,2013-03-18 03:15:00
11:35 PM,35.6,35.6,100,30.15,7.0,East,8.1,-,N/A,,Light Drizzle,90,2013-03-18 03:35:00
11:55 PM,35.6,35.6,100,30.15,7.0,East,5.8,-,N/A,,Overcast,90,2013-03-18 03:55:00